KC0AFB Weather Reports


Display with metric or nautical units.
time (UTC)temp
F
wind
direction
speed
MPH
gust
MPH
rain 1hr
in
rain 24hr
in
rain mn
in
humidity
%
barometer
mb
20260903205217 75 62 4.0 6.0 0.00 0.00 0.00 80 1008.7
20260903204713 75 20 4.0 5.0 0.00 0.00 0.00 79 1008.8
20260903204210 74 77 4.0 7.0 0.00 0.00 0.00 79 1008.7
20260903203704 73 80 3.0 5.0 0.00 0.00 0.00 81 1008.7
20260903203200 72 48 6.0 6.0 0.00 0.00 0.00 82 1008.7
20260903202654 72 38 5.0 7.0 0.00 0.00 0.00 82 1009.0
20260903202150 72 58 3.0 5.0 0.00 0.00 0.00 82 1009.3
20260903201643 73 28 3.0 3.0 0.00 0.00 0.00 82 1008.8
20260903201138 72 44 5.0 7.0 0.00 0.00 0.00 83 1008.7
20260903200633 72 27 4.0 6.0 0.00 0.00 0.00 84 1008.7
20260903200129 71 48 4.0 6.0 0.00 0.00 0.00 83 1008.6
20260903195624 71 28 5.0 6.0 0.00 0.00 0.00 84 1008.8
20260903195120 71 46 3.0 5.0 0.00 0.00 0.00 84 1008.5
20260903194614 71 74 2.0 3.0 0.00 0.00 0.00 84 1008.3
20260903194114 71 31 5.0 6.0 0.00 0.00 0.00 84 1008.1
20260903193611 71 48 5.0 8.0 0.00 0.00 0.00 84 1008.3
20260903193106 71 40 3.0 6.0 0.00 0.00 0.00 85 1008.7
20260903192603 71 32 5.0 8.0 0.00 0.00 0.00 85 1008.4
20260903192103 71 30 5.0 6.0 0.00 0.00 0.00 84 1008.7
20260903191559 71 35 2.0 3.0 0.00 0.00 0.00 86 1008.6
20260903191054 70 31 4.0 5.0 0.00 0.00 0.00 86 1008.9
20260903190553 70 27 3.0 3.0 0.00 0.00 0.00 86 1008.9
20260903190053 71 326 4.0 5.0 0.00 0.00 0.00 85 1009.3
20260903185548 71 299 3.0 3.0 0.00 0.00 0.00 85 1009.0
20260903185044 71 31 1.0 2.0 0.00 0.00 0.00 86 1008.8
20260903184540 71 43 3.0 5.0 0.00 0.00 0.00 86 1008.7
20260903184035 71 26 2.0 2.0 0.00 0.00 0.00 86 1008.7
20260903183534 71 35 1.0 1.0 0.00 0.00 0.00 85 1008.7
20260903183029 71 45 2.0 2.0 0.00 0.00 0.00 86 1008.9
20260903182527 70 124 3.0 3.0 0.00 0.00 0.00 86 1008.8
20260903182024 70 42 3.0 3.0 0.00 0.00 0.00 86 1008.4
20260903181517 71 55 5.0 6.0 0.00 0.00 0.00 86 1008.2
20260903181017 70 49 5.0 6.0 0.00 0.00 0.00 87 1008.2
20260903180513 69 60 3.0 3.0 0.00 0.00 0.00 88 1008.3
20260903180007 69 52 3.0 5.0 0.00 0.00 0.00 89 1008.1
20260903175506 68 48 5.0 6.0 0.00 0.00 0.00 89 1008.2
20260903175005 68 74 6.0 7.0 0.00 0.00 0.00 90 1008.2
20260903174500 67 44 4.0 5.0 0.00 0.00 0.00 91 1008.3
20260903174000 66 32 5.0 6.0 0.00 0.00 0.00 92 1008.0
20260903173455 66 39 6.0 8.0 0.00 0.00 0.00 92 1008.1
20260903172950 66 47 8.0 10.0 0.00 0.00 0.00 93 1007.8
20260903172445 66 37 7.0 11.0 0.00 0.00 0.00 93 1007.8
20260903171941 65 47 8.0 10.0 0.00 0.00 0.00 93 1007.5
20260903171431 65 13 5.0 7.0 0.00 0.00 0.00 92 1007.8
20260903170931 66 24 6.0 8.0 0.00 0.00 0.00 91 1007.8
20260903170425 67 12 6.0 7.0 0.00 0.00 0.00 90 1007.8
20260903165924 69 22 4.0 6.0 0.00 0.00 0.00 90 1007.4
20260903165418 68 43 2.0 2.0 0.00 0.00 0.00 90 1007.5
20260903164913 69 356 2.0 2.0 0.00 0.00 0.00 90 1007.5
20260903164408 68 65 2.0 2.0 0.00 0.00 0.00 90 1007.6
20260903163908 69 33 2.0 2.0 0.00 0.00 0.00 89 1007.5
20260903163404 68 22 3.0 3.0 0.00 0.00 0.00 89 1007.5
20260903162900 68 32 2.0 2.0 0.00 0.00 0.00 89 1007.6
20260903162356 69 60 2.0 2.0 0.00 0.00 0.00 89 1007.4
20260903161852 69 43 3.0 3.0 0.00 0.00 0.00 89 1007.1
20260903161347 69 63 3.0 3.0 0.00 0.00 0.00 89 1006.8
20260903160843 68 60 5.0 6.0 0.00 0.00 0.00 89 1006.8
20260903160341 68 55 3.0 3.0 0.00 0.00 0.00 89 1006.8
20260903155840 68 51 3.0 5.0 0.00 0.00 0.00 89 1006.8
20260903155335 68 33 5.0 6.0 0.00 0.00 0.00 89 1006.6
20260903154831 68 25 7.0 8.0 0.00 0.00 0.00 89 1006.8
20260903154327 68 75 3.0 3.0 0.00 0.00 0.00 89 1006.6
20260903153822 68 59 4.0 5.0 0.00 0.00 0.00 89 1006.4
20260903153318 68 97 3.0 5.0 0.00 0.00 0.00 89 1006.3
20260903152815 68 69 5.0 6.0 0.00 0.00 0.00 89 1006.2
20260903152310 67 88 4.0 5.0 0.00 0.00 0.00 90 1006.2
20260903151810 67 62 4.0 6.0 0.00 0.00 0.00 90 1006.2
20260903151305 67 105 5.0 5.0 0.00 0.00 0.00 90 1006.3
20260903150759 67 52 3.0 5.0 0.00 0.00 0.00 90 1006.4
20260903150253 67 74 6.0 9.0 0.00 0.00 0.00 90 1006.5
20260903145750 67 79 5.0 7.0 0.00 0.00 0.00 90 1006.7
20260903145245 66 68 4.0 7.0 0.00 0.00 0.00 90 1006.7
20260903144743 66 71 3.0 3.0 0.00 0.00 0.00 91 1006.8
20260903144239 66 50 8.0 9.0 0.00 0.00 0.00 90 1006.9
20260903143735 66 64 5.0 7.0 0.00 0.00 0.00 90 1007.0
20260903143231 66 53 3.0 6.0 0.00 0.00 0.00 90 1007.1
20260903142727 66 45 6.0 7.0 0.00 0.00 0.00 90 1007.1
20260903142223 66 28 5.0 7.0 0.00 0.00 0.00 90 1007.2
20260903141717 66 56 5.0 6.0 0.00 0.00 0.00 89 1007.5
20260903141213 66 32 3.0 3.0 0.00 0.00 0.00 89 1007.6
20260903140708 66 42 4.0 5.0 0.00 0.00 0.00 89 1007.8
20260903140203 65 62 3.0 3.0 0.00 0.00 0.00 89 1007.8
20260903135659 65 53 2.0 2.0 0.00 0.00 0.00 89 1007.8
20260903135154 65 47 3.0 3.0 0.00 0.00 0.00 89 1008.0
20260903134653 64 13 2.0 2.0 0.00 0.00 0.00 89 1008.0
20260903134149 64 45 2.0 2.0 0.00 0.00 0.00 89 1007.7
20260903133646 64 58 0.0 1.0 0.00 0.00 0.00 89 1007.6
20260903133142 64 86 2.0 2.0 0.00 0.00 0.00 89 1007.4
20260903132636 64 56 2.0 2.0 0.00 0.00 0.00 89 1007.1
20260903132131 64 96 1.0 1.0 0.00 0.00 0.00 89 1007.5
20260903131626 64 155 4.0 5.0 0.00 0.00 0.00 89 1007.0
20260903131125 64 102 6.0 8.0 0.00 0.00 0.00 89 1006.7
20260903130620 63 79 8.0 10.0 0.00 0.00 0.00 89 1006.6
20260903130114 63 74 10.0 11.0 0.00 0.00 0.00 89 1006.2
20260903125613 63 73 11.0 13.0 0.00 0.00 0.00 89 1006.2
20260903125103 63 56 9.0 11.0 0.00 0.00 0.00 89 1006.1
20260903124602 63 84 11.0 13.0 0.00 0.00 0.00 89 1006.1
20260903124057 63 70 9.0 11.0 0.00 0.00 0.00 89 1006.4
20260903123556 63 110 7.0 8.0 0.00 0.00 0.00 88 1006.2
20260903123054 63 96 8.0 10.0 0.00 0.00 0.00 89 1006.3
20260903122549 63 78 9.0 11.0 0.00 0.00 0.00 88 1006.1
20260903122048 63 95 7.0 8.0 0.00 0.00 0.00 88 1006.4
20260903121543 62 126 8.0 9.0 0.00 0.00 0.00 88 1006.4
20260903121039 62 100 7.0 10.0 0.00 0.00 0.00 88 1006.3
20260903120538 62 83 7.0 10.0 0.00 0.00 0.00 87 1006.3
20260903120033 62 114 5.0 6.0 0.00 0.00 0.00 87 1006.4
20260903115531 62 96 6.0 8.0 0.00 0.00 0.00 87 1006.4
20260903115026 62 102 6.0 8.0 0.00 0.00 0.00 86 1006.3
20260903114521 62 78 8.0 10.0 0.00 0.00 0.00 86 1006.5
20260903114017 62 75 6.0 8.0 0.00 0.00 0.00 86 1006.7
20260903113513 62 85 5.0 6.0 0.00 0.00 0.00 85 1006.8
20260903113009 62 87 4.0 6.0 0.00 0.00 0.00 85 1007.0
20260903112503 62 57 4.0 5.0 0.00 0.00 0.00 85 1007.0
20260903112003 62 83 4.0 6.0 0.00 0.00 0.00 84 1006.8
20260903111457 62 86 3.0 3.0 0.00 0.00 0.00 84 1006.8
20260903110954 62 93 3.0 3.0 0.00 0.00 0.00 84 1006.8
20260903110449 62 105 5.0 6.0 0.00 0.00 0.00 84 1006.5
20260903105943 62 66 7.0 9.0 0.00 0.00 0.00 83 1006.2
20260903105439 62 92 5.0 6.0 0.00 0.00 0.00 83 1006.4
20260903104938 62 134 6.0 8.0 0.00 0.00 0.00 82 1006.5
20260903104438 63 108 5.0 7.0 0.00 0.00 0.00 82 1006.6
20260903103935 63 83 9.0 10.0 0.00 0.00 0.00 82 1006.4
20260903103430 62 79 5.0 7.0 0.00 0.00 0.00 82 1006.7
20260903102926 63 98 7.0 8.0 0.00 0.00 0.00 81 1006.7
20260903102421 63 114 7.0 8.0 0.00 0.00 0.00 80 1006.8
20260903101920 63 80 4.0 7.0 0.00 0.00 0.00 80 1006.7
20260903101415 63 73 9.0 10.0 0.00 0.00 0.00 80 1006.7
20260903100910 63 91 6.0 8.0 0.00 0.00 0.00 80 1006.5
20260903100406 63 73 9.0 13.0 0.00 0.00 0.00 79 1006.7
20260903095902 64 90 8.0 11.0 0.00 0.00 0.00 78 1006.6
20260903095356 64 99 6.0 7.0 0.00 0.00 0.00 78 1006.7
20260903094851 64 96 8.0 9.0 0.00 0.00 0.00 77 1006.9
20260903094346 64 82 10.0 13.0 0.00 0.00 0.00 77 1006.9
20260903093842 64 134 5.0 5.0 0.00 0.00 0.00 77 1007.0
20260903093337 64 77 6.0 6.0 0.00 0.00 0.00 77 1006.9
20260903092832 64 120 11.0 15.0 0.00 0.00 0.00 77 1007.0
20260903092327 64 102 10.0 11.0 0.00 0.00 0.00 76 1006.8
20260903091825 64 77 11.0 14.0 0.00 0.00 0.00 76 1006.9
20260903091319 64 60 10.0 14.0 0.00 0.00 0.00 76 1006.9
20260903090815 64 57 7.0 10.0 0.00 0.00 0.00 76 1006.7
20260903090315 64 128 11.0 15.0 0.00 0.00 0.00 76 1007.0
20260903085813 64 111 11.0 15.0 0.00 0.00 0.00 75 1007.0
20260903085308 64 70 11.0 14.0 0.00 0.00 0.00 75 1007.2
20260903084806 64 88 8.0 10.0 0.00 0.00 0.00 75 1007.5
20260903084300 64 105 9.0 11.0 0.00 0.00 0.00 75 1007.4
20260903083755 64 83 11.0 14.0 0.00 0.00 0.00 75 1007.2
20260903083250 64 93 8.0 9.0 0.00 0.00 0.00 74 1007.6
20260903082749 65 95 6.0 9.0 0.00 0.00 0.00 74 1007.7
20260903082245 65 73 7.0 9.0 0.00 0.00 0.00 73 1007.7
20260903081745 65 90 9.0 11.0 0.00 0.00 0.00 72 1007.7
20260903081241 66 103 8.0 9.0 0.00 0.00 0.00 72 1007.8
20260903080737 66 79 12.0 15.0 0.00 0.00 0.00 72 1007.8
20260903080235 66 73 7.0 9.0 0.00 0.00 0.00 71 1007.7
20260903075734 66 78 14.0 17.0 0.00 0.00 0.00 70 1007.7
20260903075229 66 89 10.0 14.0 0.00 0.00 0.00 70 1008.3
20260903074728 66 93 7.0 9.0 0.00 0.00 0.00 70 1008.3
20260903074223 66 81 12.0 15.0 0.00 0.00 0.00 70 1008.7
20260903073718 67 50 7.0 9.0 0.00 0.00 0.00 70 1008.5
20260903073214 67 66 9.0 13.0 0.00 0.00 0.00 69 1008.7
20260903072709 67 82 8.0 9.0 0.00 0.00 0.00 68 1008.4
20260903072206 68 78 8.0 11.0 0.00 0.00 0.00 68 1008.7
20260903071702 68 74 8.0 13.0 0.00 0.00 0.00 68 1008.9
20260903071157 68 80 5.0 6.0 0.00 0.00 0.00 67 1009.0
20260903070657 68 82 8.0 10.0 0.00 0.00 0.00 67 1009.0
20260903070153 68 75 8.0 10.0 0.00 0.00 0.00 67 1009.2
20260903065647 68 105 9.0 10.0 0.00 0.00 0.00 66 1009.3
20260903065147 68 93 12.0 16.0 0.00 0.00 0.00 67 1009.4
20260903064646 68 85 7.0 10.0 0.00 0.00 0.00 67 1009.3
20260903064142 68 87 10.0 11.0 0.00 0.00 0.00 68 1009.5
20260903063638 68 74 7.0 9.0 0.00 0.00 0.00 68 1009.6
20260903063138 67 73 7.0 8.0 0.00 0.00 0.00 69 1009.5
20260903062634 67 117 7.0 9.0 0.00 0.00 0.00 70 1009.7
20260903062129 67 70 8.0 10.0 0.00 0.00 0.00 70 1009.7
20260903061624 67 91 7.0 8.0 0.00 0.00 0.00 70 1009.8
20260903061123 68 131 7.0 8.0 0.00 0.00 0.00 69 1009.6
20260903060618 68 84 7.0 8.0 0.00 0.00 0.00 69 1009.6
20260903060114 68 81 8.0 10.0 0.00 0.00 0.00 69 1009.8
20260903055611 68 81 7.0 8.0 0.00 0.00 0.00 69 1010.1
20260903055109 68 93 7.0 9.0 0.00 0.00 0.00 69 1010.1
20260903054604 69 87 7.0 8.0 0.00 0.00 0.00 68 1010.0
20260903054101 69 104 7.0 9.0 0.00 0.00 0.00 68 1009.8
20260903053556 69 104 9.0 11.0 0.00 0.00 0.00 68 1009.9
20260903053052 69 113 8.0 9.0 0.00 0.00 0.00 68 1009.9
20260903052548 69 59 8.0 9.0 0.00 0.00 0.00 68 1010.0
20260903052043 69 113 6.0 7.0 0.00 0.00 0.00 69 1010.2
20260903051542 68 104 8.0 10.0 0.00 0.00 0.00 69 1010.2
20260903051038 68 63 7.0 10.0 0.00 0.00 0.00 70 1010.2
20260903050537 68 83 9.0 9.0 0.00 0.00 0.00 71 1010.2
20260903050033 68 80 6.0 7.0 0.00 0.00 0.00 71 1010.4
20260903045532 68 94 9.0 11.0 0.00 0.00 0.00 72 1010.3
20260903045029 67 64 7.0 9.0 0.00 0.00 0.00 72 1010.3
20260903044525 68 57 8.0 10.0 0.00 0.00 0.00 72 1010.2
20260903044020 68 76 8.0 9.0 0.00 0.00 0.00 71 1010.3
20260903043516 68 103 11.0 13.0 0.00 0.00 0.00 70 1010.0
20260903043015 68 57 8.0 10.0 0.00 0.00 0.00 70 1010.2
20260903042510 68 84 7.0 9.0 0.00 0.00 0.00 70 1010.3
20260903042006 68 59 8.0 11.0 0.00 0.00 0.00 71 1010.5
20260903041502 67 58 8.0 10.0 0.00 0.00 0.00 71 1010.3
20260903040957 67 75 7.0 10.0 0.00 0.00 0.00 71 1010.4
20260903040456 67 58 5.0 6.0 0.00 0.00 0.00 71 1010.5
20260903035953 67 71 8.0 9.0 0.00 0.00 0.00 71 1010.5
20260903035448 67 67 10.0 13.0 0.00 0.00 0.00 71 1010.4
20260903034943 68 94 9.0 13.0 0.00 0.00 0.00 71 1010.7
20260903034438 68 72 8.0 10.0 0.00 0.00 0.00 70 1010.5
20260903033933 68 75 6.0 8.0 0.00 0.00 0.00 70 1010.6
20260903033428 68 54 7.0 8.0 0.00 0.00 0.00 69 1010.7
20260903032923 68 62 7.0 9.0 0.00 0.00 0.00 70 1010.7
20260903032419 68 62 8.0 8.0 0.00 0.00 0.00 69 1010.9
20260903031914 68 70 8.0 11.0 0.00 0.00 0.00 68 1010.7
20260903031413 68 76 9.0 10.0 0.00 0.00 0.00 68 1010.9
20260903030908 69 90 7.0 9.0 0.00 0.00 0.00 67 1010.7
20260903030405 69 93 5.0 6.0 0.00 0.00 0.00 67 1010.8
20260903025901 69 70 8.0 9.0 0.00 0.00 0.00 67 1010.7
20260903025356 69 79 6.0 8.0 0.00 0.00 0.00 67 1010.9
20260903024855 69 84 6.0 7.0 0.00 0.00 0.00 67 1010.8
20260903024350 70 71 6.0 8.0 0.00 0.00 0.00 66 1010.9
20260903023845 70 55 6.0 7.0 0.00 0.00 0.00 65 1010.9
20260903023341 71 56 6.0 9.0 0.00 0.00 0.00 64 1011.2
20260903022836 71 68 5.0 6.0 0.00 0.00 0.00 63 1011.2
20260903022335 71 59 6.0 8.0 0.00 0.00 0.00 63 1010.8
20260903021834 71 57 6.0 7.0 0.00 0.00 0.00 63 1010.7
20260903021330 72 64 5.0 7.0 0.00 0.00 0.00 63 1010.9
20260903020830 72 73 7.0 8.0 0.00 0.00 0.00 61 1010.5
20260903020325 72 76 5.0 6.0 0.00 0.00 0.00 62 1010.6
20260903015820 72 65 6.0 7.0 0.00 0.00 0.00 62 1010.7
20260903015315 72 68 7.0 9.0 0.00 0.00 0.00 61 1010.3
20260903014810 73 74 5.0 8.0 0.00 0.00 0.00 61 1010.4
20260903014309 73 78 6.0 7.0 0.00 0.00 0.00 61 1010.4
20260903013805 73 79 5.0 6.0 0.00 0.00 0.00 61 1010.4
20260903013304 73 69 6.0 8.0 0.00 0.00 0.00 60 1010.6
20260903012803 73 70 6.0 8.0 0.00 0.00 0.00 60 1010.4
20260903012258 73 79 7.0 8.0 0.00 0.00 0.00 59 1010.5
20260903011757 74 68 8.0 9.0 0.00 0.00 0.00 58 1010.5
20260903011256 74 58 6.0 7.0 0.00 0.00 0.00 58 1010.7
20260903010752 75 83 5.0 6.0 0.00 0.00 0.00 57 1010.4
20260903010247 76 66 8.0 9.0 0.00 0.00 0.00 56 1010.5
20260903005746 76 77 5.0 6.0 0.00 0.00 0.00 55 1010.6
20260903005241 77 61 7.0 13.0 0.00 0.00 0.00 54 1010.7
20260903004736 77 85 7.0 9.0 0.00 0.00 0.00 54 1010.5
20260903004232 78 116 7.0 9.0 0.00 0.00 0.00 53 1010.6
20260903003727 78 68 13.0 16.0 0.00 0.00 0.00 53 1010.7
20260903003222 78 111 7.0 8.0 0.00 0.00 0.00 54 1010.6
20260903002711 78 97 7.0 9.0 0.00 0.00 0.00 53 1010.7
20260903002205 78 112 10.0 11.0 0.00 0.00 0.00 54 1010.8
20260903001700 78 106 9.0 10.0 0.00 0.00 0.00 54 1010.9
20260903001154 79 83 11.0 15.0 0.00 0.00 0.00 53 1010.8
20260903000650 79 86 8.0 10.0 0.00 0.00 0.00 53 1010.9
20260903000149 78 72 6.0 7.0 0.00 0.00 0.00 52 1010.8
20260902235648 78 71 8.0 11.0 0.00 0.00 0.00 52 1010.9
20260902235144 78 68 9.0 11.0 0.00 0.00 0.00 52 1010.9
20260902234637 78 67 11.0 15.0 0.00 0.00 0.00 53 1011.1
20260902234136 79 97 8.0 9.0 0.00 0.00 0.00 54 1011.1
20260902233632 79 62 7.0 8.0 0.00 0.00 0.00 55 1010.9
20260902233126 79 99 10.0 13.0 0.00 0.00 0.00 54 1010.9
20260902232625 80 101 13.0 17.0 0.00 0.00 0.00 53 1010.9
20260902232125 80 141 6.0 7.0 0.00 0.00 0.00 52 1010.9
20260902231624 80 60 7.0 10.0 0.00 0.00 0.00 52 1010.7
20260902231124 80 91 9.0 11.0 0.00 0.00 0.00 52 1010.8
20260902230620 80 75 8.0 9.0 0.00 0.00 0.00 53 1010.9
20260902230118 81 90 10.0 14.0 0.00 0.00 0.00 52 1011.1
20260902225614 81 143 13.0 14.0 0.00 0.00 0.00 52 1010.8
20260902225113 81 92 7.0 10.0 0.00 0.00 0.00 53 1011.1
20260902224612 81 81 13.0 18.0 0.00 0.00 0.00 51 1010.9
20260902224108 81 87 9.0 10.0 0.00 0.00 0.00 52 1010.9
20260902223604 82 80 13.0 17.0 0.00 0.00 0.00 51 1010.9
20260902223103 81 140 7.0 8.0 0.00 0.00 0.00 52 1010.8
20260902222601 79 94 9.0 10.0 0.00 0.00 0.00 54 1010.9
20260902222100 80 103 4.0 7.0 0.00 0.00 0.00 54 1010.9
20260902221555 81 102 6.0 9.0 0.00 0.00 0.00 53 1010.9
20260902221050 82 47 9.0 11.0 0.00 0.00 0.00 51 1011.3
20260902220545 82 87 9.0 9.0 0.00 0.00 0.00 50 1010.9
20260902220040 82 101 7.0 8.0 0.00 0.00 0.00 51 1011.1
20260902215537 82 78 8.0 11.0 0.00 0.00 0.00 51 1010.9
20260902215032 82 78 9.0 11.0 0.00 0.00 0.00 51 1011.1
20260902214531 81 108 9.0 11.0 0.00 0.00 0.00 53 1011.1
20260902214031 82 122 9.0 11.0 0.00 0.00 0.00 53 1011.1
20260902213527 81 124 6.0 7.0 0.00 0.00 0.00 53 1011.3
20260902213025 81 99 6.0 7.0 0.00 0.00 0.00 52 1011.3
20260902212522 81 78 8.0 10.0 0.00 0.00 0.00 52 1011.3
20260902212017 83 108 10.0 14.0 0.00 0.00 0.00 50 1011.2
20260902211514 82 76 8.0 11.0 0.00 0.00 0.00 50 1011.3
20260902211009 82 107 9.0 11.0 0.00 0.00 0.00 50 1011.4
20260902210508 83 82 8.0 9.0 0.00 0.00 0.00 50 1011.3
20260902210008 82 122 8.0 11.0 0.00 0.00 0.00 51 1011.2